When you browse on this site, cookies collect data to enhance your experience and personalize the content and advertising you see.
Visit our Privacy Policy to learn more. By continuing to use the site, you agree to this use of cookies and data.
  • In Deutschland
  • Länderverzeichnis
  • Für 7 Tage
  • Wassertemperatur
  • Wetterkarte
  • Widgets
  • user-avatar
    Anmelden

    Stündliche Wetter Durham

    Heute, 17 Januar, Freitag

    Zeit Temperatur Niederschläge Wind Luftdruck Luftfeuchtigkeit
    00:00 +6°C° 0 mm 4 m/S 746 mmHg 86%
    01:00 +6°C° 0 mm 4 m/S 747 mmHg 87%
    02:00 +6°C° 0 mm 4 m/S 747 mmHg 88%
    03:00 +6°C° 0 mm 4 m/S 747 mmHg 88%
    04:00 +5°C° 0.1 mm 4 m/S 747 mmHg 89%
    05:00 +5°C° 0.1 mm 3 m/S 747 mmHg 90%
    06:00 +5°C° 0 mm 3 m/S 747 mmHg 92%
    07:00 +4°C° 0.2 mm 3 m/S 747 mmHg 91%
    08:00 +5°C° 0.2 mm 2 m/S 747 mmHg 91%
    09:00 +5°C° 0.2 mm 2 m/S 747 mmHg 91%
    10:00 +4°C° 0.7 mm 3 m/S 748 mmHg 87%
    11:00 +4°C° 0.7 mm 4 m/S 748 mmHg 84%
    12:00 +4°C° 0.7 mm 4 m/S 749 mmHg 80%
    13:00 +3°C° 0.1 mm 5 m/S 749 mmHg 78%
    14:00 +3°C° 0.1 mm 5 m/S 749 mmHg 76%
    15:00 +3°C° 0.1 mm 5 m/S 750 mmHg 75%
    16:00 +3°C° 0 mm 5 m/S 750 mmHg 77%
    17:00 +3°C° 0 mm 5 m/S 751 mmHg 80%
    18:00 +3°C° 0 mm 6 m/S 752 mmHg 83%
    19:00 +2°C° 0 mm 6 m/S 752 mmHg 83%
    20:00 +2°C° 0 mm 5 m/S 753 mmHg 84%
    21:00 +2°C° 0 mm 5 m/S 753 mmHg 85%
    22:00 +2°C° 0 mm 6 m/S 754 mmHg 83%
    23:00 +1°C° 0 mm 6 m/S 755 mmHg 81%

    Morgen, 18 Januar, Samstag

    Zeit Temperatur Niederschläge Wind Luftdruck Luftfeuchtigkeit
    00:00 0°C° 0 mm 7 m/S 756 mmHg 79%
    01:00 0°C° 0 mm 7 m/S 756 mmHg 78%
    02:00 0°C° 0 mm 7 m/S 757 mmHg 77%
    03:00 -1°C° 0 mm 7 m/S 757 mmHg 76%
    04:00 -1°C° 0 mm 7 m/S 758 mmHg 76%
    05:00 -1°C° 0 mm 6 m/S 758 mmHg 76%
    06:00 -1°C° 0 mm 6 m/S 759 mmHg 76%
    07:00 0°C° 0 mm 7 m/S 760 mmHg 77%
    08:00 0°C° 0 mm 7 m/S 760 mmHg 77%
    09:00 0°C° 0 mm 7 m/S 761 mmHg 77%
    10:00 +2°C° 0 mm 7 m/S 762 mmHg 75%
    11:00 +3°C° 0 mm 7 m/S 762 mmHg 73%
    12:00 +2°C° 0 mm 8 m/S 763 mmHg 71%
    13:00 +3°C° 0 mm 7 m/S 764 mmHg 70%
    14:00 +3°C° 0 mm 6 m/S 764 mmHg 70%
    15:00 +3°C° 0 mm 5 m/S 765 mmHg 70%
    16:00 +2°C° 0 mm 5 m/S 766 mmHg 72%
    17:00 +1°C° 0 mm 5 m/S 766 mmHg 75%
    18:00 +1°C° 0 mm 5 m/S 767 mmHg 78%
    19:00 0°C° 0 mm 4 m/S 768 mmHg 79%
    20:00 0°C° 0 mm 4 m/S 769 mmHg 80%
    21:00 0°C° 0 mm 4 m/S 769 mmHg 81%
    22:00 0°C° 0 mm 4 m/S 770 mmHg 80%
    23:00 0°C° 0 mm 4 m/S 771 mmHg 80%

    übermorgen, 19 Januar, Sonntag

    Zeit Temperatur Niederschläge Wind Luftdruck Luftfeuchtigkeit
    00:00 +1°C° 0 mm 3 m/S 772 mmHg 79%
    01:00 +1°C° 0 mm 3 m/S 772 mmHg 77%
    02:00 +1°C° 0 mm 3 m/S 773 mmHg 76%
    03:00 +1°C° 0 mm 2 m/S 773 mmHg 74%
    04:00 +1°C° 0 mm 2 m/S 774 mmHg 74%
    05:00 +1°C° 0 mm 2 m/S 774 mmHg 73%
    06:00 +1°C° 0 mm 2 m/S 775 mmHg 72%
    07:00 0°C° 0 mm 3 m/S 775 mmHg 74%
    08:00 +1°C° 0 mm 3 m/S 776 mmHg 76%
    09:00 +1°C° 0 mm 3 m/S 777 mmHg 78%
    10:00 +2°C° 0 mm 3 m/S 777 mmHg 75%
    11:00 +3°C° 0 mm 3 m/S 777 mmHg 72%
    12:00 +4°C° 0 mm 3 m/S 777 mmHg 69%
    13:00 +4°C° 0 mm 3 m/S 777 mmHg 71%
    14:00 +5°C° 0 mm 2 m/S 777 mmHg 73%
    15:00 +5°C° 0 mm 2 m/S 778 mmHg 74%
    16:00 +4°C° 0 mm 2 m/S 778 mmHg 77%
    17:00 +2°C° 0 mm 3 m/S 778 mmHg 79%
    18:00 +1°C° 0 mm 3 m/S 778 mmHg 82%
    19:00 +1°C° 0 mm 3 m/S 778 mmHg 81%
    20:00 +1°C° 0 mm 3 m/S 778 mmHg 80%
    21:00 +2°C° 0 mm 2 m/S 778 mmHg 79%
    22:00 +1°C° 0 mm 3 m/S 778 mmHg 78%
    23:00 +1°C° 0 mm 3 m/S 778 mmHg 76%

    20 Januar, Montag

    Zeit Temperatur Niederschläge Wind Luftdruck Luftfeuchtigkeit
    00:00 +1°C° 0 mm 3 m/S 778 mmHg 75%
    01:00 +1°C° 0 mm 3 m/S 778 mmHg 74%
    02:00 +1°C° 0 mm 3 m/S 778 mmHg 73%
    03:00 +1°C° 0 mm 3 m/S 778 mmHg 73%
    04:00 +1°C° 0 mm 3 m/S 778 mmHg 72%
    05:00 +1°C° 0 mm 3 m/S 778 mmHg 71%
    06:00 +1°C° 0 mm 3 m/S 778 mmHg 70%
    07:00 +1°C° 0 mm 3 m/S 778 mmHg 70%
    08:00 +1°C° 0 mm 3 m/S 778 mmHg 70%
    09:00 +1°C° 0 mm 3 m/S 778 mmHg 69%
    10:00 +3°C° 0 mm 2 m/S 778 mmHg 67%
    11:00 +5°C° 0 mm 2 m/S 778 mmHg 64%
    12:00 +6°C° 0 mm 2 m/S 778 mmHg 61%
    13:00 +6°C° 0 mm 2 m/S 777 mmHg 63%
    14:00 +5°C° 0 mm 2 m/S 777 mmHg 65%
    15:00 +5°C° 0 mm 2 m/S 777 mmHg 68%
    16:00 +4°C° 0 mm 2 m/S 776 mmHg 70%
    17:00 +3°C° 0 mm 2 m/S 776 mmHg 72%
    18:00 +2°C° 0 mm 2 m/S 776 mmHg 75%
    19:00 +2°C° 0 mm 2 m/S 776 mmHg 74%
    20:00 +2°C° 0 mm 2 m/S 776 mmHg 74%
    21:00 +2°C° 0 mm 2 m/S 776 mmHg 73%
    22:00 +2°C° 0 mm 2 m/S 776 mmHg 72%
    23:00 +2°C° 0 mm 2 m/S 776 mmHg 71%

    21 Januar, Dienstag

    Zeit Temperatur Niederschläge Wind Luftdruck Luftfeuchtigkeit
    00:00 +2°C° 0 mm 2 m/S 776 mmHg 70%
    01:00 +2°C° 0 mm 2 m/S 775 mmHg 71%
    02:00 +1°C° 0 mm 2 m/S 775 mmHg 72%
    03:00 +1°C° 0 mm 2 m/S 775 mmHg 73%
    04:00 +1°C° 0 mm 2 m/S 775 mmHg 75%
    05:00 +1°C° 0 mm 2 m/S 774 mmHg 78%
    06:00 +1°C° 0 mm 2 m/S 774 mmHg 80%
    07:00 +1°C° 0 mm 2 m/S 774 mmHg 82%
    08:00 +1°C° 0 mm 3 m/S 774 mmHg 84%
    09:00 +1°C° 0 mm 3 m/S 774 mmHg 86%
    10:00 +2°C° 0 mm 3 m/S 774 mmHg 84%
    11:00 +3°C° 0 mm 3 m/S 774 mmHg 81%
    12:00 +4°C° 0 mm 3 m/S 774 mmHg 78%
    13:00 +5°C° 0 mm 2 m/S 774 mmHg 81%
    14:00 +5°C° 0 mm 2 m/S 773 mmHg 83%
    15:00 +5°C° 0 mm 2 m/S 773 mmHg 85%
    16:00 +5°C° 0 mm 2 m/S 773 mmHg 87%
    17:00 +4°C° 0 mm 2 m/S 773 mmHg 88%
    18:00 +3°C° 0 mm 2 m/S 773 mmHg 90%
    19:00 +4°C° 0 mm 2 m/S 773 mmHg 90%
    20:00 +4°C° 0 mm 2 m/S 773 mmHg 91%
    21:00 +4°C° 0 mm 2 m/S 774 mmHg 91%
    22:00 +5°C° 0 mm 1 m/S 773 mmHg 91%
    23:00 +5°C° 0 mm 1 m/S 773 mmHg 92%

    22 Januar, Mittwoch

    Zeit Temperatur Niederschläge Wind Luftdruck Luftfeuchtigkeit
    00:00 +5°C° 0 mm 1 m/S 773 mmHg 92%
    01:00 +5°C° 0 mm 1 m/S 773 mmHg 92%
    02:00 +5°C° 0 mm 1 m/S 773 mmHg 92%
    03:00 +4°C° 0 mm 1 m/S 772 mmHg 92%
    04:00 +4°C° 0 mm 1 m/S 772 mmHg 92%
    05:00 +4°C° 0 mm 1 m/S 772 mmHg 92%
    06:00 +4°C° 0 mm 1 m/S 772 mmHg 93%
    07:00 +5°C° 0 mm 1 m/S 772 mmHg 92%
    08:00 +5°C° 0 mm 1 m/S 772 mmHg 91%
    09:00 +6°C° 0 mm 1 m/S 772 mmHg 90%
    10:00 +7°C° 0 mm 1 m/S 772 mmHg 87%
    11:00 +8°C° 0 mm 1 m/S 771 mmHg 85%
    12:00 +8°C° 0 mm 1 m/S 771 mmHg 82%
    13:00 +8°C° 0 mm 1 m/S 771 mmHg 83%
    14:00 +8°C° 0 mm 1 m/S 770 mmHg 84%
    15:00 +8°C° 0 mm 1 m/S 770 mmHg 85%
    16:00 +6°C° 0 mm 2 m/S 769 mmHg 87%
    17:00 +5°C° 0 mm 2 m/S 769 mmHg 88%
    18:00 +5°C° 0 mm 2 m/S 769 mmHg 89%
    19:00 +5°C° 0 mm 2 m/S 769 mmHg 90%
    20:00 +5°C° 0 mm 2 m/S 769 mmHg 90%
    21:00 +4°C° 0 mm 2 m/S 769 mmHg 91%
    22:00 +3°C° 0 mm 3 m/S 768 mmHg 91%
    23:00 +3°C° 0 mm 3 m/S 768 mmHg 91%
    Mehr zeigen